Regional Weather Roundup
Issued by NWS Columbia, SC

Home | Current Version | Previous Version | Text Only | Print | Product List | Glossary On
Versions: 1 2 3 4 5 6 7 8 9 10 11 12 13 14 15 16 17 18 19 20 21 22 23 24 25 26 27 28 29 30 31 32 33 34 35 36 37 38 39 40 41 42 43 44 45 46 47 48 49 50
000
ASUS42 KCAE 202310
RWRCAE
REGIONAL WEATHER ROUNDUP
NATIONAL WEATHER SERVICE COLUMBIA SC
700 PM EDT SAT SEP 20 2014

NOTE: "FAIR" INDICATES FEW OR NO CLOUDS BELOW 12,000 FEET WITH NO
SIGNIFICANT WEATHER AND/OR OBSTRUCTIONS TO VISIBILITY.

NOT ALL STATIONS ARE QUALITY CONTROLLED BY THE NATIONAL
WEATHER SERVICE. USE DATA WITH CAUTION...ESPECIALLY
DEWPOINT OBSERVATIONS.

SCZ001>056-GAZ040-063>065-077-210000-
...UPSTATE SOUTH CAROLINA...

CITY           SKY/WX    TMP DP  RH WIND       PRES   REMARKS
ANDERSON       CLEAR     78  59  51 NE5       30.04S
LIBERTY        FAIR      78  61  56 NE3       30.05S
SPARTANBURG    FAIR      79  59  50 NE3       30.04S
CLEMSON        CLEAR     80  58  46 NE5       30.05F
GREENVILLE     CLEAR     78  57  48 N6        30.06S
GREENWOOD      PTCLDY    78  60  53 N3        30.03F
GREER          CLEAR     75  60  59 NE5       30.04S
ROCK HILL      MOCLDY    77  61  57 CALM      30.04S
CHESTER        FAIR      79  57  47 CALM      30.08S
LAURENS        FAIR      77  54  44 N3        30.04S


...CENTRAL SOUTH CAROLINA...

CITY           SKY/WX    TMP DP  RH WIND       PRES   REMARKS
COLUMBIA APT   CLOUDY    78  58  49 N6        29.99F
COLUMBIA OWENS CLOUDY    77  60  55 CALM      30.00F
DARLINGTON     CLOUDY    73  63  68 N8        30.00F
FLORENCE       CLOUDY    74  62  66 N6        29.98F
MCENTIRE ANGB  CLOUDY    74  63  69 N5        29.99F
ORANGEBURG     CLOUDY    74  62  66 N3        29.98F
SUMTER SHAW    CLOUDY    74  63  68 N6        29.98S
NEWBERRY       FAIR      79  55  44 E3        30.04F
AIKEN          FAIR      77  63  61 N5        30.03F
BARNWELL       FAIR      75  63  64 NE6       29.99F
MANNING        FAIR      72  66  83 CALM      29.97F
CAMDEN         FAIR      73  63  68 CALM      30.01F
LANCASTER      FAIR      75  59  57 NE3       30.02S
WINNSBORO      FAIR      75  59  57 N3        30.01F


...EASTERN AND COASTAL SOUTH CAROLINA...

CITY           SKY/WX    TMP DP  RH WIND       PRES   REMARKS
MYRTLE BEACH   MOCLDY    73  64  73 N12       29.94F
N MYRTLE BCH   CLOUDY    74  66  76 N8        29.94F
CONWAY         FAIR      72  66  83 N3        29.96S
MARION         FAIR      73  63  68 N6        29.97F
HARTSVILLE     FAIR      75  41  29 N5        30.01S
FLORENCE       CLOUDY    74  62  66 N6        29.98F
DARLINGTON     CLOUDY    73  63  68 N8        30.00F
CHARLESTON APT CLOUDY    74  66  76 N9        29.95S
MOUNT PLEASANT FAIR      72  68  88 N5        29.94S
WALTERBORO     CLOUDY    72  68  88 N5        29.97F
BEAUFORT       CLOUDY    73  67  81 SW8       29.95F


...EASTERN GEORGIA...

CITY           SKY/WX    TMP DP  RH WIND       PRES   REMARKS
AUGUSTA BUSH F MOCLDY    79  61  53 E7        29.98F
AUGUSTA DANIEL MOCLDY    81  57  43 NE7       30.00F
THOMSON        PTCLDY    79  68  67 CALM      30.04F
WASHINGTON     FAIR      81  66  61 N3        30.02S
CLAXTON        FAIR      77  68  73 CALM      29.97S
SYLVANIA       MOCLDY    80  70  71 N6        29.98F
STATESBORO     MOCLDY    74  67  79 CALM      29.97S
SAVANNAH       CLOUDY    74  65  73 N8        29.95F


...SOUTHERN NORTH CAROLINA...

CITY           SKY/WX    TMP DP  RH WIND       PRES   REMARKS
CHARLOTTE      MOCLDY    77  57  50 N5        30.04F
MONROE         MOCLDY    76  58  53 NE7       30.02F
WADESBORO      MOCLDY    76  59  55 CALM      30.01S
ROCKINGHAM     CLOUDY    74  59  58 N3        30.01S
RUTHERFORDTON  CLEAR     76  61  57 CALM      30.07S
ASHEVILLE      CLEAR     72  57  59 S5        30.10F

$$


USA.gov is the U.S. government's official web portal to all federal, state and local government web resources and services.